This demonstration page uses our WeatherBlox Daily Observations layout. Learn more.

Left ArrowRight Arrow

Hourly Observations for February 12, 2022

Temp ( °F °C ) Dew Point ( °F °C ) Humidity (%) Winds ( mph kmh ) Pressure ( in mb ) Visibility ( mi km ) Precip ( " mm )
12:56 am 00:56 Clear 13 -10.8 -2 -18.8 52 52 N 14 22 30.53 1034 10 16 0.00 0.00
1:56 am 01:56 Clear 11 -11.6 -2 -18.9 55 55 NNW 14 22 30.54 1034 10 16 0.00 0.00
2:56 am 02:56 Clear 10 -12.5 -2 -19.1 58 58 NW 12 19 30.57 1035 10 16 0.00 0.00
3:56 am 03:56 Clear 8 -13.1 -3 -19.5 59 59 NNW 10 17 30.58 1036 10 16 0.00 0.00
4:56 am 04:56 Clear 7 -13.7 -3 -19.5 62 62 NW 8 13 30.58 1036 10 16 0.00 0.00
5:56 am 05:56 Clear 6 -14.2 -4 -20.1 61 61 NW 12 19 30.59 1036 10 16 0.00 0.00
6:56 am 06:56 Clear 6 -14.7 -5 -20.6 61 61 NW 10 17 30.61 1037 10 16 0.00 0.00
7:56 am 07:56 Sunny 6 -14.6 -6 -20.9 59 59 NW 9 15 30.60 1036 10 16 0.00 0.00
8:56 am 08:56 undefined 8 -13.4 -6 -21 53 53 NNW 5 7 30.61 1037 10 16 0.00 0.00
9:56 am 09:56 Sunny 11 -11.8 -7 -21.6 44 44 W 5 7 30.60 1036 10 16 0.00 0.00
10:56 am 10:56 Cloudy 12 -11.3 -9 -22.6 39 39 Calm 30.57 1035 10 16 0.00 0.00
11:56 am 11:56 Mostly Cloudy 16 -9.1 -8 -22.1 34 34 WSW 6 9 30.54 1034 10 16 0.00 0.00
12:56 pm 12:56 undefined 20 -6.5 -4 -20.2 33 33 SSW 5 7 30.49 1033 10 16 0.00 0.00
1:56 pm 13:56 undefined 24 -4.6 -1 -18.5 33 33 SW 7 11 30.44 1031 10 16 0.00 0.00
2:56 pm 14:56 Partly Cloudy 26 -3.4 1 -17 34 34 SW 9 15 30.42 1030 10 16 0.00 0.00
3:56 pm 15:56 Mostly Sunny 29 -1.4 4 -15.6 33 33 S 6 9 30.39 1029 10 16 0.00 0.00
4:56 pm 16:56 Mostly Sunny 30 -1 6 -14.2 36 36 SSE 6 9 30.37 1028 10 16 0.00 0.00
5:56 pm 17:56 Clear 28 -2.3 8 -13.2 43 43 SE 9 15 30.34 1027 10 16 0.00 0.00
6:56 pm 18:56 Partly Cloudy 26 -3.1 6 -14.5 41 41 ESE 6 9 30.32 1027 10 16 0.00 0.00
7:56 pm 19:56 Cloudy 26 -3.1 7 -13.7 44 44 SE 8 13 30.30 1026 10 16 0.00 0.00
8:56 pm 20:56 Cloudy 26 -3.2 9 -12.7 48 48 SSE 9 15 30.29 1026 10 16 0.00 0.00
9:56 pm 21:56 Mostly Cloudy 26 -3.2 10 -12.2 50 50 SE 6 9 30.29 1026 10 16 0.00 0.00
10:56 pm 22:56 Cloudy 26 -3.2 11 -11.4 54 54 ESE 3 6 30.29 1026 10 16 0.00 0.00
11:56 pm 23:56 Mostly Cloudy 27 -3 12 -11 54 54 Calm 30.27 1025 10 16 0.00 0.00

Powered by AerisWeather